SSD

Satellite information

Favourite Embed

Satellite Type and Status

PAYLOADIN ORBIT

Key statistics

Satellite SSD at a glance.

Uptime

15649

Days in orbit

Revolutions

≈ 13.5

Per day

Orbit

LEO

Low Earth Orbit

Inclination

63.3

Latest

Satellite identification and parameters

Extended collection of information and parameters for SSD.

Object identification

Identified? True

Debris? False

Object name: SSD

International designator: 1983-008B

Object number (NORAD): 13792

Object ID (CCSDS): 13792

Country: UNITED STATES OF AMERICA (US)

Current information (Y/N): Y

RCS size: LARGE

Orbital parameters

Period: 106.874 minutes

Inclination: 63.3346 deg

SMA: 7460.059 km

Apoapsis: 1512.12 km

Periapsis: 651.728 km

RAAN: 179.1149 deg

Eccentricy: 0.05766656

Argument of periapsis: 138.007 deg

Mean anomaly: 226.6696 deg

Mean motion: 13.47377789 rev/day

Mean motion (dot): 0.0000047 rev/day2

B* drag term: 0.00033210828 1/REarth

Two-line elements (TLE)

Creation date: Dec. 14, 2025, 3:07 a.m.

Reference frame: TEME

Reference center: EARTH

Epoch: Dec. 13, 2025, 4:01 p.m. UTC

TLE line 0: 0 SSD

TLE line 1: 1 13792U 83008B 25347.66750369 .00000470 00000-0 33211-3 0 9998

TLE line 2: 2 13792 63.3346 179.1149 0576666 138.0070 226.6696 13.47377789 77889

Live tracking on map

Real-time ground track for satellite SSD.

In-orbit conjunctions

A list of the most updated potential collisions computed for object SSD.

Target Orbit TCA Probability of collision Miss distance Type
COSMOS 795 LEO 2025-05-03 20:46:23 0.0001826953 722.0 (m) PAYLOAD
CZ-6A DEB LEO 2024-12-07 18:18:25 0.0001739672 628.0 (m) DEBRIS
FENGYUN 1C DEB SSO 2024-09-24 19:22:38 0.0003610968 755.0 (m) DEBRIS

Associated space launch

The Parcae satellites were passive ELINT satellites. MSD satellites were dispensers of triplets of ocean surveillance satellites.

SSD was lifted into orbit during the mission ‘Atlas H | Parcae 5A,B,C & MSD 5’, on board a Atlas H space rocket.

The launch took place on Feb. 9, 1983, 1:47 p.m. from Space Launch Complex 3E.

For more information about the launch, click the button.

Launch to space Atlas H | Parcae 5A,B,C & MSD 5
Atlas H | Parcae 5A,B,C & MSD 5

Agency: N/A

Status: Launch Successful

Launch date: Feb. 9, 1983, 1:47 p.m. UTC

Rocket: Atlas H

Launch pad: Space Launch Complex 3E

Location: Vandenberg SFB, CA, USA

...

Latest news about this satellite

There are no fresh news available about this satellite. Check back as we update our databases every day.


Newsletter sign-up

Weekly statistics, charts and insights to help you stay on top of the space industry.